TimeEST,TemperatureF,Dew PointF,Humidity,Sea Level PressureIn,VisibilityMPH,Wind Direction,Wind SpeedMPH,Gust SpeedMPH,PrecipitationIn,Events,Conditions,WindDirDegrees,DateUTC
12:53 AM,43.0,34.0,71,30.36,10.0,Calm,Calm,-,N/A,,Clear,0,2011-11-25 05:53:00
1:53 AM,39.9,34.0,79,30.36,10.0,Calm,Calm,-,N/A,,Clear,0,2011-11-25 06:53:00
3:53 AM,37.9,34.0,86,30.37,10.0,Calm,Calm,-,N/A,,Clear,0,2011-11-25 08:53:00
4:53 AM,39.0,35.1,86,30.36,10.0,Calm,Calm,-,N/A,,Clear,0,2011-11-25 09:53:00
5:53 AM,37.0,33.1,86,30.37,10.0,Calm,Calm,-,N/A,,Clear,0,2011-11-25 10:53:00
6:53 AM,35.1,33.1,92,30.40,10.0,Calm,Calm,-,N/A,,Clear,0,2011-11-25 11:53:00
7:53 AM,37.9,33.1,83,30.40,10.0,Calm,Calm,-,N/A,,Clear,0,2011-11-25 12:53:00
8:53 AM,44.1,37.9,79,30.40,10.0,Calm,Calm,-,N/A,,Clear,0,2011-11-25 13:53:00
9:53 AM,52.0,36.0,54,30.41,10.0,Calm,Calm,-,N/A,,Clear,0,2011-11-25 14:53:00
10:53 AM,55.9,33.1,42,30.41,10.0,Calm,Calm,-,N/A,,Clear,0,2011-11-25 15:53:00
11:53 AM,57.9,32.0,37,30.38,10.0,SSE,3.5,-,N/A,,Clear,150,2011-11-25 16:53:00
12:53 PM,61.0,27.0,27,30.35,10.0,SSE,5.8,-,N/A,,Clear,160,2011-11-25 17:53:00
2:53 PM,63.0,28.0,27,30.29,10.0,SSE,6.9,-,N/A,,Clear,150,2011-11-25 19:53:00
4:53 PM,62.1,28.9,29,30.28,10.0,ESE,3.5,-,N/A,,Clear,120,2011-11-25 21:53:00
5:53 PM,57.0,30.9,37,30.29,10.0,Calm,Calm,-,N/A,,Clear,0,2011-11-25 22:53:00
6:53 PM,55.9,28.9,36,30.29,10.0,Calm,Calm,-,N/A,,Clear,0,2011-11-25 23:53:00
7:53 PM,55.0,28.9,37,30.30,10.0,ESE,3.5,-,N/A,,Clear,110,2011-11-26 00:53:00
8:53 PM,54.0,28.9,38,30.30,10.0,Calm,Calm,-,N/A,,Clear,0,2011-11-26 01:53:00
9:53 PM,52.0,30.0,43,30.30,10.0,Calm,Calm,-,N/A,,Clear,0,2011-11-26 02:53:00
10:53 PM,51.1,30.0,44,30.30,10.0,East,4.6,-,N/A,,Clear,80,2011-11-26 03:53:00
11:53 PM,46.9,30.9,54,30.30,10.0,ENE,4.6,-,N/A,,Partly Cloudy,60,2011-11-26 04:53:00